Location: Kaarina
(60.4167°N, 22.4167°E)
Time: 22:21:02
(UTC+03:00)

NOSS 2-2 (C) - Pass Details

Date: 24 August 2019
Orbit: 493 x 1715 km, 63.3° (Epoch: 21 September)

Event Time Altitude Azimuth Distance (km) Brightness Sun altitude
Rises 22:17:28 0° 277° (W) 2,788 7.9 -8.8°
Reaches altitude 10° 22:19:29 10° 281° (W) 1,986 7.2 -9.0°
Maximum altitude 22:23:53 63° 3° (N) 824 4.4 -9.4°
Drops below altitude 10° 22:29:46 10° 85° (E) 2,635 6.4 -9.9°
Sets 22:32:47 0° 88° (E) 3,791 7.2 -10.2°
